Regional Weather Roundup
Issued by NWS Mt. Holly, NJ

Home | Current Version | Previous Version | Text Only | Print | Product List | Glossary On
Versions: 1 2 3 4 5 6 7 8 9 10 11 12 13 14 15 16 17 18 19 20 21 22 23 24 25 26 27
000
ASUS41 KPHI 281912
RWRPHI

REGIONAL WEATHER ROUNDUP
NATIONAL WEATHER SERVICE MOUNT HOLLY NJ
300 PM EDT SAT MAY 28 2016

NOTE:  "FAIR" INDICATES FEW OR NO CLOUDS BELOW 12,000 FEET WITH NO
SIGNIFICANT WEATHER AND/OR OBSTRUCTIONS TO VISIBILITY.

 * = STATION DOES NOT REPORT PRECIPITATION (E.G. RAIN, SNOW, ETC.)
        OR FOG.

NJZ015>026-282000-
SOUTHERN NEW JERSEY

CITY           SKY/WX    TMP DP  RH WIND       PRES   REMARKS
POMONA         SUNNY     82  64  54 S12       30.14F
WILDWOOD*      SUNNY    N/A N/A N/A S17       30.18S
MILLVILLE      SUNNY     84  65  52 S8        30.15F
WRIGHTSTOWN    MOSUNNY   90  67  46 SW15      30.08F HX  93
MOUNT HOLLY    MOSUNNY   90  67  46 VRB7      30.11F HX  93
TRENTON        SUNNY     89  68  49 SW16      30.10F HX  93

$$
NJZ001>014-282000-
NORTHERN NEW JERSEY

CITY           SKY/WX    TMP DP  RH WIND       PRES   REMARKS
SUSSEX         LGT RAIN  80  66  62 SW6       30.10S
ANDOVER*         N/A     88  66  48 VRB3      30.10F HX  90
MORRISTOWN     MOSUNNY   91  64  40 W9G17     30.08F HX  93
NEWARK         MOSUNNY   95  64  35 SW13G20   30.07F HX  97
TETERBORO      PTSUNNY   91  63  39 S13G22    30.05F HX  92
CALDWELL       SUNNY     92  63  38 SW8       30.07F HX  93
SOMERVILLE     SUNNY     90  67  46 S9        30.07F HX  93
ALLAIRE*       PTSUNNY   85  68  56 SE10      30.11F
TOMS RIVER*    MOSUNNY   93  66  40 S15       30.10F HX  96

$$
PAZ043-044-047-054-055-060>062-066>071-282000-
EASTERN PENNSYLVANIA

CITY           SKY/WX    TMP DP  RH WIND       PRES   REMARKS
PHILADELPHIA   MOSUNNY   90  65  43 SW15      30.12F HX  92
NORTH PHILA    SUNNY     90  68  48 SW15      30.12F HX  94
BLUE BELL*     SUNNY     88  68  51 SW10G17   30.11S HX  91
DOYLESTOWN     SUNNY     87  64  46 SW12      30.11F
QUAKERTOWN*    MOSUNNY   88  68  51 SW9       30.13R HX  91
PERKASIE*      FAIR      86  68  54 SW9       30.13S
POTTSTOWN      MOSUNNY   87  68  52 S10       30.13S HX  90
LANCASTER      MOSUNNY   86  69  56 S12       30.11F HX  90
COATESVILLE    SUNNY     86  66  51 VRB5G13   30.16S
READING        PTSUNNY   90  67  46 S8G18     30.10S HX  93
ALLENTOWN      MOSUNNY   89  67  47 S14       30.09F HX  92
MOUNT POCONO   RAIN      73  65  75 E8        30.17S
HAZLETON       PTSUNNY   79  68  69 E6        30.19S
LEHIGHTON      MOCLDY    86  61  42 SW3       30.10S
WILKES BARRE   CLOUDY    90  66  45 N14       30.10F HX  92

$$
DEZALL-MDZ008-012-015-019-020-282000-
DELAWARE AND EASTERN MARYLAND

CITY           SKY/WX    TMP DP  RH WIND       PRES   REMARKS
WILMINGTON     SUNNY     86  69  56 SE14      30.13F HX  90
DOVER          MOSUNNY   89  71  55 S12       30.13S HX  95
GEORGETOWN     MOSUNNY   88  65  46 S9        30.16S HX  90
EASTON         SUNNY     86  72  62 SW12G18   30.19S HX  92
PATUXENT       MOSUNNY   79  64  60 SE14      30.16F
OCEAN CITY     SUNNY     75  61  61 S8        30.19F
WALLOPS ISLAND FAIR      79  59  50 S15       30.19F
CAMBRIDGE      SUNNY     82  63  51 S6        30.16S
SALISBURY      MOSUNNY   86  64  47 S10G18    30.16F

$$
PAZ001-021-NYZ056-072-MDZ011-DCZ001-282000-
OTHER NEARBY LOCATIONS

CITY           SKY/WX    TMP DP  RH WIND       PRES   REMARKS
HARRISBURG     MOSUNNY   90  67  46 W5        30.09F HX  93
STATE COLLEGE  MOSUNNY   81  66  61 CALM      30.13F
WILLIAMSPORT   CLOUDY    91  63  39 VRB7      30.07F HX  92
BINGHAMTON     SUNNY     86  60  41 NW7       30.14F
NEW YORK CITY  SUNNY     90  66  45 VRB7      30.10F HX  92
BALTIMORE      MOSUNNY   87  68  52 S10       30.12F HX  90
WASHINGTON DC  FAIR      86  69  56 S13       30.13F HX  90

$$




USA.gov is the U.S. government's official web portal to all federal, state and local government web resources and services.